Regional Weather Roundup
Issued by NWS

Home | Current Version | Previous Version | Graphics & Text | Print | Product List | Glossary On
Versions: 1 2 3 4 5 6 7 8 9 10 11 12 13 14 15 16 17 18 19 20 21 22 23 24 25 26 27 28 29 30 31 32 33 34 35 36 37 38 39 40 41 42 43 44 45 46 47 48 49 50
000
ASUS43 KFSD 281802
RWRSD

WEATHER ROUNDUP FOR SOUTH DAKOTA
NATIONAL WEATHER SERVICE SIOUX FALLS SD
100 PM CDT THU APR 28 2016

NOTE: "FAIR" INDICATES FEW OR NO CLOUDS BELOW 12,000 FEET WITH NO
SIGNIFICANT WEATHER AND/OR OBSTRUCTIONS TO VISIBILITY.


SDZ001>005-009-010-012>017-281900-
NORTHWEST AND NORTH CENTRAL SOUTH DAKOTA

CITY           SKY/WX    TMP DP  RH WIND       PRES   REMARKS
BUFFALO          N/A     36  32  85 NE12      30.01S
FAITH            N/A     36  31  82 NE12      30.07R
MOBRIDGE       PTSUNNY   48  38  68 N13G18    30.04F
$$

SDZ012>016-024>037-041>051-057-063-072>074-281900-
SOUTHWEST AND SOUTH CENTRAL SOUTH DAKOTA

CITY           SKY/WX    TMP DP  RH WIND       PRES   REMARKS
RAPID CTY ARPT CLOUDY    38  34  85 NW13      30.06R
PIERRE         CLOUDY    44  36  73 N12       30.04R
CUSTER         CLOUDY    34  25  69 VRB7      29.98S WCI  28
ELLSWORTH AFB  CLOUDY    37  37 100 N9        30.05
PHILIP         CLOUDY    40  35  83 NE12      30.06S
PINE RIDGE     LGT RAIN  37  32  82 NW5       30.04S
WINNER         CLOUDY    41  36  82 NW14      30.03S
$$

SDZ004>011-016>023-039-040-281900-
NORTHEAST SOUTH DAKOTA

CITY           SKY/WX    TMP DP  RH WIND       PRES   REMARKS
ABERDEEN       CLOUDY    47  33  58 NE9       30.05S
WATERTOWN      CLOUDY    37  32  82 NE8       30.01R
BROOKINGS      CLOUDY    37  33  85 NE9       29.99R
SISSETON         N/A     45  28  51 E10       30.04R
$$

SDZ017-020-022-023-036>040-048>070-281900-
SOUTHEAST SOUTH DAKOTA

CITY           SKY/WX    TMP DP  RH WIND       PRES   REMARKS
SIOUX FALLS    CLOUDY    40  36  86 N13       29.98R
HURON          LGT RAIN  39  36  89 NE12      30.03S
MITCHELL       CLOUDY    39  37  93 N13       30.02R
YANKTON        CLOUDY    43  37  81 N13       29.97S
$$

ABBREVIATIONS USED IN REMARKS
   TC - TEMPERATURE IN CELSIUS
  WCI - WIND CHILL INDEX
   HX - HEAT INDEX
  VSB - VISIBILITY




USA.gov is the U.S. government's official web portal to all federal, state and local government web resources and services.